Location: Newark
(49.8969°N, 3.3422°E)
Time: 23:06:18
(UTC+00:00)

A-11 Canister half - Pass Details

Date: 02 February 2020
Orbit: 1517 x 1683 km, 47.2° (Epoch: 26 February)

Event Time Altitude Azimuth Distance (km) Brightness Sun altitude
Rises 23:23:09 0° 259° (W) 4,758 - -56.0°
Reaches altitude 10° 23:26:16 10° 258° (WSW) 3,753 - -56.1°
Maximum altitude 23:35:42 76° 175° (S) 1,573 - -56.5°
Drops below altitude 10° 23:44:56 10° 92° (E) 3,680 - -56.7°
Sets 23:47:57 0° 91° (E) 4,661 - -56.7°
